Regional Weather Roundup
Issued by NWS Albany, NY

Home | Current Version | Previous Version | Text Only | Print | Product List | Glossary On
Versions: 1 2 3 4 5 6 7 8 9 10 11 12 13 14 15 16 17 18 19 20 21 22 23 24 25 26 27
000
ASUS41 KALY 231710
RWRALY

NEW YORK STATE HOURLY WEATHER ROUNDUP
NATIONAL WEATHER SERVICE ALBANY NY
100 PM EDT WED MAY 23 2018

NOTE: "FAIR" INDICATES FEW OR NO CLOUDS BELOW 12,000 FEET WITH NO
SIGNIFICANT WEATHER AND/OR NO OBSTRUCTIONS TO VISIBILITY.

NYZ032-033-038>043-046>054-057>066-NYZ062>081-082-084-231800-
EAST


CITY           SKY/WX    TMP DP  RH WIND       PRES   REMARKS
ALBANY         FAIR      76  56  49 W12       29.95F
GLENS FALLS    FAIR      73  60  63 S12       29.91F
POUGHKEEPSIE   FAIR      74  55  51 N12       29.93F
NEWBURGH       MOSUNNY   73  59  60 N8        29.97F
MONTGOMERY     FAIR      75  57  53 NE10      29.94F
WHITE PLAINS   FAIR      72  58  61 NW10      29.94F
ISLIP          PTSUNNY   74  60  61 N13       29.93S
NEW YORK CITY  PTSUNNY   72  59  63 N10       29.94S
CENTRAL PARK   CLOUDY    71  62  73 MISG      29.98R
$$

NYZ005>009-017-018-044>046-055-056-231800-
CENTRAL


CITY           SKY/WX    TMP DP  RH WIND       PRES   REMARKS
FULTON         FAIR      70  54  56 W10       30.03S
SYRACUSE       FAIR      71  59  65 W9        30.02F
ROME           SUNNY     68  59  73 SW9       30.02S
ELMIRA         FAIR      74  54  49 N6        30.05S
BINGHAMTON     FAIR      68  53  58 N10G18    30.05S
$$

NYZ026>034-041>043-087-231800-
NORTH


CITY           SKY/WX    TMP DP  RH WIND       PRES   REMARKS
WATERTOWN      FAIR      61  54  77 SW12G18   30.03S
FORT DRUM      NOT AVBL
OGDENSBURG     FAIR      71  59  65 SW8       29.97S
MASSENA        FAIR      72  53  51 NW10G21   29.96S
SARANAC LAKE   FAIR      70  50  49 VRB7      29.94F
PLATTSBURGH    FAIR      71  56  58 E7        29.89S
$$

NYZ001>004-010>016-019>021-085-231800-
WEST


CITY           SKY/WX    TMP DP  RH WIND       PRES   REMARKS
NIAGARA FALLS  FAIR      69  56  62 S16       30.09S
BUFFALO        FAIR      61  55  81 SW16      30.11S
DUNKIRK        FAIR      61  55  81 SW16      30.14S
JAMESTOWN      FAIR      67  54  63 VRB7      30.15S
WELLSVILLE     FAIR      71  53  52 MISG      30.13S
ROCHESTER      FAIR      74  56  53 W14       30.05S
PENN YAN       FAIR      75  49  39 NW8       30.06S
$$

             KEY
       WCI = WIND CHILL INDEX
       VSB = VISIBILITY
       HX  = HEAT INDEX
$$




USA.gov is the U.S. government's official web portal to all federal, state and local government web resources and services.